Weather History for PHKO - January, 2013

Change the Weather History Date:

Wednesday, January 16, 2013

  Actual Average Record
Temperature  
Mean Temperature 74 °F -  
Max Temperature 78 °F 79 °F 89 °F (1984)
Min Temperature 69 °F 66 °F 60 °F (1992)
Cooling Degree Days 8    
Growing Degree Days 24 (Base 50)    
Moisture  
Dew Point 65 °F    
Average Humidity 73    
Maximum Humidity 84    
Minimum Humidity 65    
Precipitation  
Precipitation 0.00 in - - ()
Sea Level Pressure  
Sea Level Pressure 29.90 in    
Wind  
Wind Speed 5 mph (NNE)    
Max Wind Speed 14 mph    
Max Gust Speed -    
Visibility 10 miles    
Events Rain    
Averages and records for this station are not official NWS values.
T = Trace of Precipitation, MM = Missing Value Source: NWS Daily Summary

Daily Weather History Graph

Daily Weather History Graph

Search for Another Location

Airport or City:

Trip Planner

Search our weather history database for the weather conditions in past years. The results will help you decide how hot, cold, wet, or windy it might be!

Date:

Astronomy

Jan. 16, 2013 Rise Set
Actual Time 7:01 AM HST 6:06 PM HST
Civil Twilight 6:38 AM HST 6:30 PM HST
Nautical Twilight 6:11 AM HST 6:57 PM HST
Astronomical Twilight 5:44 AM HST 7:24 PM HST
Moon 10:34 AM HST (1/16) 11:13 PM HST (1/16)
Length of Visible Light 11h 52m
Length of Day
11h 05m
Waxing Crescent, 30% of the Moon is Illuminated
Jan 16
Waxing Crescent
Jan 18
First Quarter
Jan 26
Full
Feb 3
Last Quarter
Feb 9
New

Hourly Weather History & Observations

Time (HST) Temp. Dew Point Humidity Pressure Visibility Wind Dir Wind Speed Gust Speed Precip Events Conditions
12:13 AM - - N/A% 29.91 in 10.0 mi Calm Calm - N/A   Mostly Cloudy
12:25 AM - - N/A% 29.91 in 10.0 mi Calm Calm - N/A   Mostly Cloudy
12:53 AM - - N/A% 29.91 in 10.0 mi Calm Calm - N/A   Scattered Clouds
1:53 AM - - N/A% 29.91 in 10.0 mi WNW 8.1 mph - N/A   Mostly Cloudy
2:00 AM - - N/A% 29.90 in 10.0 mi NW 9.2 mph - 0.00 in Rain Light Rain
2:30 AM - - N/A% 29.90 in 10.0 mi NE 6.9 mph - 0.00 in   Mostly Cloudy
2:41 AM - - N/A% 29.90 in 10.0 mi NE 5.8 mph - 0.00 in   Mostly Cloudy
2:53 AM - - N/A% 29.91 in 10.0 mi NE 5.8 mph - 0.00 in   Mostly Cloudy
3:19 AM - - N/A% 29.89 in 10.0 mi NE 5.8 mph - N/A   Mostly Cloudy
3:34 AM - - N/A% 29.89 in 10.0 mi ENE 4.6 mph - N/A   Overcast
3:53 AM - - N/A% 29.90 in 10.0 mi ENE 4.6 mph - N/A   Scattered Clouds
4:53 AM - - N/A% 29.91 in 10.0 mi ENE 3.5 mph - N/A   Clear
5:53 AM - - N/A% 29.91 in 10.0 mi ENE 4.6 mph - N/A   Clear
5:55 AM 69.8 °F 64.4 °F 83% 29.90 in 10.0 mi ENE 4.6 mph - N/A   Clear
6:53 AM 69.8 °F 64.9 °F 84% 29.91 in 10.0 mi ENE 5.8 mph - N/A   Clear
7:53 AM - - N/A% 29.93 in 10.0 mi NE 5.8 mph - N/A   Clear
7:54 AM - - N/A% 29.92 in 10.0 mi NE 5.8 mph - N/A   Clear
8:00 AM 69.8 °F 64.4 °F 83% 29.92 in 10.0 mi NE 5.8 mph - N/A   Clear
8:53 AM 75.2 °F 64.9 °F 70% 29.94 in 10.0 mi North 8.1 mph - N/A   Scattered Clouds
9:53 AM 77.0 °F 66.0 °F 69% 29.94 in 10.0 mi NNW 9.2 mph - N/A   Partly Cloudy
10:53 AM 77.0 °F 64.9 °F 66% 29.93 in 10.0 mi NNW 10.4 mph - N/A   Clear
11:53 AM 78.8 °F 66.2 °F 65% 29.89 in 10.0 mi NNW 11.5 mph - N/A   Clear
12:53 PM 78.8 °F 66.2 °F 65% 29.86 in 10.0 mi NNW 13.8 mph - N/A   Clear
1:53 PM - - N/A% 29.85 in 10.0 mi NNW 12.7 mph - N/A   Clear
2:53 PM - - N/A% 29.84 in 10.0 mi NW 13.8 mph - N/A   Clear
3:53 PM - - N/A% 29.84 in 10.0 mi NNW 13.8 mph - N/A   Clear
4:53 PM - - N/A% 29.85 in 10.0 mi North 11.5 mph - N/A   Clear
5:53 PM - - N/A% 29.86 in 10.0 mi NNW 10.4 mph - N/A   Clear
6:53 PM - - N/A% 29.88 in 10.0 mi NNW 9.2 mph - N/A   Clear
7:53 PM - - N/A% 29.89 in 10.0 mi North 8.1 mph - N/A   Clear
8:53 PM - - N/A% 29.90 in 10.0 mi North 6.9 mph - N/A   Clear
9:53 PM - - N/A% 29.89 in 10.0 mi WNW 3.5 mph - N/A   Clear
10:53 PM - - N/A% 29.89 in 10.0 mi ESE 5.8 mph - N/A   Clear
11:53 PM - - N/A% 29.89 in 10.0 mi Calm Calm - N/A   Clear